| time (UTC) | temp C | wind direction | speed KPH | gust KPH | rain 1hr cm | rain 24hr cm | rain mn cm | humidity % | barometer mb |
| 20260906012820 | 26 | 58 | 11.3 | 22.5 | 0.00 | 0.61 | 0.61 | 66 | 1011.0 |
| 20260906011842 | 26 | 120 | 17.7 | 27.4 | 0.00 | 0.61 | 0.61 | 63 | 1010.9 |
| 20260906011331 | 26 | 32 | 4.8 | 8.0 | 0.00 | 0.61 | 0.61 | 61 | 1010.5 |
| 20260906010826 | 26 | 84 | 3.2 | 4.8 | 0.00 | 0.61 | 0.61 | 63 | 1010.2 |
| 20260906010316 | 26 | 98 | 0.0 | 1.6 | 0.00 | 0.61 | 0.61 | 62 | 1010.0 |
| 20260906005847 | 26 | 98 | 0.0 | 1.6 | 0.00 | 0.61 | 0.61 | 62 | 1009.8 |
| 20260906005336 | 27 | 97 | 0.0 | 1.6 | 0.00 | 0.61 | 0.61 | 62 | 1009.7 |
| 20260906004318 | 27 | 97 | 1.6 | 4.8 | 0.00 | 0.61 | 0.61 | 64 | 1009.8 |
| 20260906003830 | 27 | 110 | 1.6 | 3.2 | 0.00 | 0.61 | 0.61 | 65 | 1009.9 |
| 20260906003322 | 27 | 111 | 1.6 | 4.8 | 0.00 | 0.61 | 0.61 | 65 | 1009.7 |
| 20260906002832 | 28 | 111 | 3.2 | 4.8 | 0.00 | 0.61 | 0.61 | 65 | 1009.5 |
| 20260906002323 | 28 | 254 | 0.0 | 0.0 | 0.00 | 0.61 | 0.61 | 64 | 1009.3 |
| 20260906001818 | 28 | 253 | 0.0 | 0.0 | 0.00 | 0.61 | 0.61 | 65 | 1009.1 |
| 20260906001329 | 28 | 253 | 0.0 | 0.0 | 0.00 | 0.61 | 0.61 | 65 | 1009.1 |
| 20260906000819 | 29 | 253 | 0.0 | 0.0 | 0.00 | 0.61 | 0.61 | 66 | 1009.2 |
| 20260906000330 | 29 | 253 | 0.0 | 0.0 | 0.00 | 0.61 | 0.61 | 66 | 1009.3 |
| 20260905235818 | 30 | 253 | 0.0 | 0.0 | 0.00 | 0.61 | 0.61 | 66 | 1009.4 |
| 20260905235329 | 30 | 253 | 0.0 | 0.0 | 0.00 | 0.61 | 0.61 | 67 | 1009.6 |
| 20260905234841 | 30 | 253 | 0.0 | 0.0 | 0.00 | 0.61 | 0.61 | 67 | 1009.8 |
| 20260905234331 | 30 | 253 | 0.0 | 0.0 | 0.00 | 0.61 | 0.61 | 65 | 1009.8 |
| 20260905233843 | 30 | 253 | 0.0 | 0.0 | 0.00 | 0.61 | 0.61 | 65 | 1009.9 |
| 20260905233314 | 30 | 254 | 0.0 | 0.0 | 0.00 | 0.61 | 0.61 | 67 | 1009.8 |
| 20260905232829 | 30 | 253 | 0.0 | 0.0 | 0.00 | 0.61 | 0.61 | 65 | 1009.9 |
| 20260905232320 | 31 | 253 | 0.0 | 0.0 | 0.00 | 0.61 | 0.61 | 66 | 1009.8 |
| 20260905231831 | 31 | 254 | 0.0 | 0.0 | 0.00 | 0.61 | 0.61 | 65 | 1009.9 |
| 20260905231323 | 31 | 253 | 0.0 | 0.0 | 0.00 | 0.61 | 0.61 | 64 | 1009.9 |
| 20260905230814 | 31 | 253 | 0.0 | 0.0 | 0.00 | 0.61 | 0.61 | 64 | 1010.0 |
| 20260905230325 | 31 | 253 | 0.0 | 0.0 | 0.00 | 0.61 | 0.61 | 65 | 1010.0 |
| 20260905225815 | 32 | 253 | 0.0 | 0.0 | 0.00 | 0.61 | 0.61 | 63 | 1010.0 |
| 20260905225326 | 32 | 253 | 0.0 | 0.0 | 0.00 | 0.61 | 0.61 | 62 | 1009.8 |
| 20260905224822 | 32 | 253 | 0.0 | 0.0 | 0.00 | 0.61 | 0.61 | 61 | 1009.9 |
| 20260905224313 | 32 | 254 | 0.0 | 0.0 | 0.00 | 0.61 | 0.61 | 62 | 1009.9 |
| 20260905223825 | 32 | 253 | 0.0 | 0.0 | 0.00 | 0.61 | 0.61 | 62 | 1009.8 |
| 20260905223337 | 32 | 253 | 0.0 | 3.2 | 0.00 | 0.61 | 0.61 | 62 | 1009.8 |
| 20260905222827 | 32 | 253 | 526.3 | 3.2 | 0.00 | 0.61 | 0.61 | 61 | 1009.8 |
| 20260905222316 | -17 | 0.0 | 0.0 | 0.00 | 0.61 | 0.61 | 1009.9 | ||
| 20260905221826 | -17 | 0.0 | 0.0 | 0.00 | 0.61 | 0.61 | 1009.8 | ||
| 20260905221318 | -17 | 0.0 | 0.0 | 0.00 | 0.61 | 0.61 | 1009.8 | ||
| 20260905220849 | -17 | 0.0 | 0.0 | 0.00 | 0.61 | 0.61 | 1009.9 | ||
| 20260905220326 | -17 | 0.0 | 0.0 | 0.00 | 0.61 | 0.61 | 1009.8 | ||
| 20260905215814 | -17 | 0.0 | 0.0 | 0.00 | 0.61 | 0.61 | 1009.6 | ||
| 20260905215325 | -17 | 0.0 | 0.0 | 0.00 | 0.61 | 0.61 | 1009.7 | ||
| 20260905214817 | -17 | 0.0 | 0.0 | 0.00 | 0.61 | 0.61 | 1009.7 | ||
| 20260905214348 | -17 | 0.0 | 0.0 | 0.00 | 0.61 | 0.61 | 1009.7 | ||
| 20260905213825 | -17 | 0.0 | 0.0 | 0.00 | 0.61 | 0.61 | 1009.7 | ||
| 20260905213330 | -17 | 0.0 | 0.0 | 0.00 | 0.61 | 0.61 | 1009.6 | ||
| 20260905212821 | -17 | 0.0 | 0.0 | 0.00 | 0.61 | 0.61 | 1009.6 | ||
| 20260905212352 | -17 | 0.0 | 0.0 | 0.00 | 0.61 | 0.61 | 1009.6 | ||
| 20260905211902 | -17 | 0.0 | 0.0 | 0.00 | 0.61 | 0.61 | 1009.7 | ||
| 20260905211340 | -17 | 0.0 | 0.0 | 0.00 | 0.61 | 0.61 | 1009.7 | ||
| 20260905210841 | -17 | 0.0 | 0.0 | 0.00 | 0.61 | 0.61 | 1009.7 | ||
| 20260905210332 | -17 | 0.0 | 0.0 | 0.00 | 0.61 | 0.61 | 1009.8 | ||
| 20260905205840 | -17 | 0.0 | 0.0 | 0.00 | 0.61 | 0.61 | 1009.9 | ||
| 20260905205351 | 33 | 262 | 4.8 | 11.3 | 0.00 | 0.61 | 0.61 | 56 | 1010.0 |
| 20260905204827 | 33 | 262 | 4.8 | 11.3 | 0.00 | 0.61 | 0.61 | 56 | 1010.0 |
| 20260905204313 | 33 | 328 | 0.0 | 9.7 | 0.00 | 0.61 | 0.61 | 56 | 1010.1 |
| 20260905203824 | 33 | 258 | 6.4 | 12.9 | 0.00 | 0.61 | 0.61 | 55 | 1010.1 |
| 20260905203316 | 33 | 22 | 6.4 | 12.9 | 0.00 | 0.61 | 0.61 | 57 | 1010.1 |
| 20260905202827 | 33 | 276 | 4.8 | 8.0 | 0.00 | 0.61 | 0.61 | 54 | 1010.1 |
| 20260905202318 | 33 | 250 | 1.6 | 9.7 | 0.00 | 0.61 | 0.61 | 56 | 1010.1 |
| 20260905201830 | 33 | 269 | 3.2 | 12.9 | 0.00 | 0.61 | 0.61 | 57 | 1010.2 |
| 20260905201321 | 33 | 253 | 8.0 | 12.9 | 0.00 | 0.61 | 0.61 | 55 | 1010.3 |
| 20260905200813 | 33 | 278 | 4.8 | 11.3 | 0.00 | 0.61 | 0.61 | 54 | 1010.3 |
| 20260905200343 | 33 | 252 | 6.4 | 11.3 | 0.00 | 0.61 | 0.61 | 55 | 1010.5 |
| 20260905193314 | 33 | 227 | 3.2 | 14.5 | 0.00 | 0.61 | 0.61 | 57 | 1010.9 |
| 20260905192824 | 33 | 277 | 3.2 | 11.3 | 0.00 | 0.61 | 0.61 | 58 | 1011.0 |
| 20260905192316 | 32 | 262 | 3.2 | 9.7 | 0.00 | 0.61 | 0.61 | 58 | 1011.1 |
| 20260905191847 | 32 | 233 | 4.8 | 12.9 | 0.00 | 0.61 | 0.61 | 57 | 1011.1 |
| 20260905191321 | 32 | 245 | 4.8 | 12.9 | 0.00 | 0.61 | 0.61 | 56 | 1011.1 |
| 20260905190812 | 32 | 267 | 4.8 | 9.7 | 0.00 | 0.61 | 0.61 | 59 | 1011.3 |
| 20260905190343 | 32 | 253 | 3.2 | 8.0 | 0.00 | 0.61 | 0.61 | 59 | 1011.2 |
| 20260905185831 | 32 | 225 | 3.2 | 11.3 | 0.00 | 0.61 | 0.61 | 58 | 1011.5 |
| 20260905185343 | 31 | 285 | 4.8 | 16.1 | 0.00 | 0.61 | 0.61 | 60 | 1011.6 |
| 20260905184813 | 31 | 265 | 4.8 | 16.1 | 0.00 | 0.61 | 0.61 | 58 | 1011.5 |
| 20260905184324 | 31 | 262 | 4.8 | 16.1 | 0.00 | 0.61 | 0.61 | 59 | 1011.6 |
| 20260905183816 | 31 | 274 | 6.4 | 14.5 | 0.00 | 0.61 | 0.61 | 58 | 1011.6 |
| 20260905183327 | 32 | 251 | 8.0 | 12.9 | 0.00 | 0.61 | 0.61 | 57 | 1011.6 |
| 20260905182823 | 31 | 215 | 4.8 | 14.5 | 0.00 | 0.61 | 0.61 | 59 | 1011.7 |
| 20260905182314 | 31 | 250 | 6.4 | 14.5 | 0.00 | 0.61 | 0.61 | 58 | 1011.7 |
| 20260905181826 | 31 | 250 | 6.4 | 17.7 | 0.00 | 0.61 | 0.61 | 60 | 1011.9 |
| 20260905181317 | 31 | 274 | 8.0 | 17.7 | 0.00 | 0.61 | 0.61 | 56 | 1011.9 |
| 20260905180829 | 31 | 221 | 4.8 | 9.7 | 0.00 | 0.61 | 0.61 | 59 | 1011.9 |
| 20260905180340 | 31 | 238 | 4.8 | 9.7 | 0.00 | 0.61 | 0.61 | 61 | 1011.9 |
| 20260905175849 | 31 | 273 | 4.8 | 11.3 | 0.00 | 0.61 | 0.61 | 62 | 1012.0 |
| 20260905175319 | 31 | 263 | 3.2 | 12.9 | 0.00 | 0.61 | 0.61 | 63 | 1012.0 |
| 20260905174851 | 30 | 276 | 6.4 | 9.7 | 0.00 | 0.61 | 0.61 | 62 | 1012.0 |
| 20260905173823 | 30 | 271 | 4.8 | 11.3 | 0.00 | 0.61 | 0.61 | 60 | 1012.1 |
| 20260905173315 | 31 | 283 | 6.4 | 9.7 | 0.00 | 0.61 | 0.61 | 60 | 1012.2 |
| 20260905172827 | 31 | 253 | 3.2 | 9.7 | 0.00 | 0.61 | 0.61 | 61 | 1012.2 |
| 20260905172318 | 30 | 267 | 4.8 | 9.7 | 0.00 | 0.61 | 0.61 | 59 | 1012.3 |
| 20260905171830 | 30 | 290 | 6.4 | 9.7 | 0.00 | 0.61 | 0.61 | 59 | 1012.4 |
| 20260905171320 | 30 | 283 | 4.8 | 9.7 | 0.00 | 0.61 | 0.61 | 58 | 1012.4 |
| 20260905170812 | 30 | 211 | 3.2 | 9.7 | 0.00 | 0.61 | 0.61 | 61 | 1012.5 |
| 20260905170324 | 30 | 262 | 4.8 | 9.7 | 0.00 | 0.61 | 0.61 | 61 | 1012.5 |
| 20260905165817 | 31 | 266 | 6.4 | 8.0 | 0.00 | 0.61 | 0.61 | 59 | 1012.6 |
| 20260905165328 | 31 | 243 | 1.6 | 8.0 | 0.00 | 0.61 | 0.61 | 59 | 1012.6 |
| 20260905164819 | 30 | 240 | 1.6 | 6.4 | 0.00 | 0.61 | 0.61 | 59 | 1012.7 |
| 20260905164351 | 30 | 246 | 3.2 | 8.0 | 0.00 | 0.61 | 0.61 | 60 | 1012.8 |
| 20260905163821 | 31 | 271 | 3.2 | 6.4 | 0.00 | 0.61 | 0.61 | 57 | 1012.8 |
| 20260905163353 | 31 | 250 | 1.6 | 4.8 | 0.00 | 0.61 | 0.61 | 59 | 1012.8 |
| 20260905162823 | 30 | 201 | 1.6 | 4.8 | 0.00 | 0.61 | 0.61 | 59 | 1012.9 |
| 20260905162313 | 30 | 245 | 1.6 | 9.7 | 0.00 | 0.61 | 0.61 | 61 | 1012.9 |
| 20260905161824 | 30 | 222 | 3.2 | 9.7 | 0.00 | 0.61 | 0.61 | 59 | 1012.9 |
| 20260905161335 | 30 | 231 | 1.6 | 4.8 | 0.00 | 0.61 | 0.61 | 61 | 1012.9 |
| 20260905160824 | 30 | 249 | 0.0 | 4.8 | 0.00 | 0.61 | 0.61 | 61 | 1012.8 |
| 20260905160318 | 30 | 232 | 1.6 | 6.4 | 0.00 | 0.61 | 0.61 | 62 | 1012.8 |
| 20260905155828 | 29 | 208 | 3.2 | 8.0 | 0.00 | 0.61 | 0.61 | 63 | 1012.8 |
| 20260905155320 | 29 | 257 | 1.6 | 6.4 | 0.00 | 0.61 | 0.61 | 63 | 1012.8 |
| 20260905154812 | 29 | 145 | 3.2 | 9.7 | 0.00 | 0.61 | 0.61 | 62 | 1012.9 |
| 20260905154324 | 28 | 221 | 3.2 | 14.5 | 0.00 | 0.61 | 0.61 | 63 | 1012.9 |
| 20260905153815 | 28 | 280 | 4.8 | 14.5 | 0.00 | 0.61 | 0.61 | 63 | 1013.0 |
| 20260905153326 | 28 | 207 | 3.2 | 9.7 | 0.00 | 0.61 | 0.61 | 65 | 1012.8 |
| 20260905152837 | 28 | 267 | 3.2 | 9.7 | 0.00 | 0.61 | 0.61 | 63 | 1012.9 |
| 20260905152328 | 28 | 253 | 1.6 | 6.4 | 0.00 | 0.61 | 0.61 | 64 | 1013.0 |
| 20260905151315 | 28 | 238 | 0.0 | 9.7 | 0.00 | 0.61 | 0.61 | 65 | 1013.0 |
| 20260905150827 | 27 | 199 | 4.8 | 12.9 | 0.00 | 0.61 | 0.61 | 64 | 1012.9 |
| 20260905150318 | 27 | 232 | 3.2 | 12.9 | 0.00 | 0.61 | 0.61 | 64 | 1013.0 |
| 20260905145840 | 27 | 158 | 1.6 | 4.8 | 0.00 | 0.61 | 0.61 | 63 | 1013.0 |
| 20260905145328 | 27 | 89 | 1.6 | 8.0 | 0.00 | 0.61 | 0.61 | 65 | 1012.8 |
| 20260905144818 | 27 | 246 | 4.8 | 8.0 | 0.00 | 0.61 | 0.61 | 64 | 1012.8 |
| 20260905144329 | 27 | 249 | 1.6 | 6.4 | 0.00 | 0.61 | 0.61 | 65 | 1012.8 |
| 20260905143820 | 26 | 248 | 1.6 | 8.0 | 0.00 | 0.61 | 0.61 | 65 | 1012.9 |
| 20260905143316 | 26 | 181 | 0.0 | 9.7 | 0.00 | 0.61 | 0.61 | 65 | 1013.0 |
| 20260905142828 | 25 | 219 | 3.2 | 9.7 | 0.00 | 0.61 | 0.61 | 65 | 1013.1 |
| 20260905142339 | 25 | 148 | 1.6 | 9.7 | 0.00 | 0.61 | 0.61 | 64 | 1013.2 |
| 20260905141830 | 25 | 152 | 3.2 | 9.7 | 0.00 | 0.61 | 0.61 | 64 | 1013.3 |
| 20260905141341 | 25 | 120 | 1.6 | 11.3 | 0.00 | 0.61 | 0.61 | 63 | 1013.5 |
| 20260905140832 | 24 | 120 | 4.8 | 11.3 | 0.00 | 0.61 | 0.61 | 64 | 1013.5 |
| 20260905140323 | 24 | 84 | 3.2 | 8.0 | 0.00 | 0.61 | 0.61 | 63 | 1013.5 |
| 20260905135831 | 24 | 126 | 3.2 | 6.4 | 0.00 | 0.61 | 0.61 | 62 | 1013.6 |
| 20260905135323 | 23 | 23 | 0.0 | 4.8 | 0.00 | 0.61 | 0.61 | 60 | 1013.7 |
| 20260905134814 | 23 | 125 | 1.6 | 8.0 | 0.00 | 0.61 | 0.61 | 60 | 1013.8 |
| 20260905134329 | 23 | 79 | 3.2 | 9.7 | 0.00 | 0.61 | 0.61 | 59 | 1013.8 |
| 20260905133820 | 22 | 63 | 4.8 | 9.7 | 0.00 | 0.61 | 0.61 | 59 | 1013.8 |
| 20260905133312 | 22 | 135 | 3.2 | 6.4 | 0.00 | 0.61 | 0.61 | 57 | 1013.9 |
| 20260905132822 | 22 | 91 | 1.6 | 4.8 | 0.00 | 0.61 | 0.61 | 56 | 1014.0 |
| 20260905132313 | 21 | 91 | 1.6 | 11.3 | 0.00 | 0.61 | 0.61 | 55 | 1014.1 |
| 20260905131823 | 21 | 110 | 4.8 | 11.3 | 0.00 | 0.61 | 0.61 | 55 | 1014.1 |
| 20260905131335 | 21 | 82 | 6.4 | 11.3 | 0.00 | 0.61 | 0.61 | 54 | 1014.0 |
| 20260905130824 | 21 | 117 | 6.4 | 11.3 | 0.10 | 0.61 | 0.61 | 54 | 1014.1 |
| 20260905130315 | 20 | 105 | 4.8 | 11.3 | 0.18 | 0.61 | 0.61 | 54 | 1014.2 |
| 20260905125828 | 20 | 75 | 4.8 | 9.7 | 0.25 | 0.61 | 0.61 | 54 | 1014.3 |
| 20260905125341 | 20 | 101 | 4.8 | 16.1 | 0.25 | 0.61 | 0.61 | 54 | 1014.4 |
| 20260905124831 | 20 | 92 | 3.2 | 16.1 | 0.28 | 0.61 | 0.61 | 54 | 1014.5 |
| 20260905124323 | 20 | 101 | 4.8 | 11.3 | 0.28 | 0.61 | 0.61 | 54 | 1014.8 |
| 20260905123813 | 20 | 78 | 3.2 | 12.9 | 0.28 | 0.61 | 0.61 | 54 | 1014.9 |
| 20260905123325 | 20 | 94 | 3.2 | 9.7 | 0.28 | 0.61 | 0.61 | 54 | 1015.0 |
| 20260905122816 | 20 | 123 | 3.2 | 14.5 | 0.30 | 0.61 | 0.61 | 54 | 1015.3 |
| 20260905122327 | 20 | 187 | 6.4 | 14.5 | 0.30 | 0.61 | 0.61 | 54 | 1015.5 |
| 20260905121819 | 21 | 134 | 3.2 | 8.0 | 0.30 | 0.61 | 0.61 | 54 | 1015.6 |
| 20260905121314 | 21 | 169 | 4.8 | 8.0 | 0.28 | 0.58 | 0.58 | 54 | 1015.3 |
| 20260905120826 | 21 | 99 | 3.2 | 6.4 | 0.20 | 0.51 | 0.51 | 53 | 1015.4 |
| 20260905120317 | 21 | 113 | 1.6 | 3.2 | 0.13 | 0.43 | 0.43 | 53 | 1015.6 |
| 20260905115846 | 22 | 240 | 1.6 | 3.2 | 0.05 | 0.36 | 0.36 | 53 | 1015.8 |
| 20260905115315 | 22 | 240 | 1.6 | 3.2 | 0.05 | 0.36 | 0.36 | 54 | 1015.8 |
| 20260905114846 | 22 | 240 | 3.2 | 6.4 | 0.03 | 0.33 | 0.33 | 55 | 1015.6 |
| 20260905114317 | 22 | 111 | 1.6 | 12.9 | 0.03 | 0.33 | 0.33 | 56 | 1015.4 |
| 20260905113828 | 22 | 110 | 6.4 | 19.3 | 0.03 | 0.33 | 0.33 | 56 | 1015.3 |
| 20260905113320 | 22 | 107 | 11.3 | 19.3 | 0.03 | 0.33 | 0.33 | 54 | 1014.9 |
| 20260905112815 | 22 | 57 | 6.4 | 19.3 | 0.00 | 0.30 | 0.30 | 53 | 1015.1 |
| 20260905112324 | 22 | 66 | 9.7 | 19.3 | 0.00 | 0.30 | 0.30 | 52 | 1015.2 |
| 20260905111814 | 22 | 127 | 6.4 | 25.7 | 0.00 | 0.30 | 0.30 | 52 | 1014.8 |
| 20260905111326 | 22 | 68 | 8.0 | 25.7 | 0.00 | 0.30 | 0.30 | 52 | 1014.4 |
| 20260905110817 | 21 | 33 | 12.9 | 22.5 | 0.00 | 0.30 | 0.30 | 52 | 1013.9 |
| 20260905110328 | 21 | 255 | 4.8 | 14.5 | 0.05 | 0.30 | 0.30 | 52 | 1012.3 |
| 20260905105817 | 21 | 210 | 8.0 | 14.5 | 0.08 | 0.30 | 0.30 | 52 | 1012.4 |
| 20260905105329 | 21 | 219 | 3.2 | 4.8 | 0.13 | 0.30 | 0.30 | 52 | 1012.5 |
| 20260905104820 | 21 | 153 | 1.6 | 1.6 | 0.30 | 0.30 | 0.30 | 53 | 1012.3 |
| 20260905104314 | 21 | 153 | 0.0 | 4.8 | 0.30 | 0.30 | 0.30 | 53 | 1011.9 |
| 20260905103825 | 21 | 153 | 1.6 | 6.4 | 0.30 | 0.30 | 0.30 | 53 | 1011.6 |
| 20260905103315 | 22 | 231 | 3.2 | 6.4 | 0.30 | 0.30 | 0.30 | 53 | 1011.6 |
| 20260905102827 | 22 | 262 | 3.2 | 6.4 | 0.30 | 0.30 | 0.30 | 53 | 1011.5 |
| 20260905102318 | 22 | 271 | 1.6 | 9.7 | 0.30 | 0.30 | 0.30 | 54 | 1011.3 |
| 20260905101830 | 22 | 273 | 4.8 | 8.0 | 0.30 | 0.30 | 0.30 | 53 | 1011.4 |
| 20260905101341 | 22 | 262 | 3.2 | 11.3 | 0.30 | 0.30 | 0.30 | 53 | 1011.7 |
| 20260905100313 | 22 | 294 | 6.4 | 33.8 | 0.25 | 0.25 | 0.25 | 54 | 1012.2 |
| 20260905095314 | 23 | 329 | 17.7 | 32.2 | 0.13 | 0.13 | 0.13 | 55 | 1012.9 |
| 20260905094825 | 23 | 346 | 12.9 | 29.0 | 0.00 | 0.00 | 0.00 | 54 | 1013.0 |
| 20260905094317 | 22 | 266 | 12.9 | 29.0 | 0.00 | 0.00 | 0.00 | 51 | 1013.1 |
| 20260905093826 | 22 | 263 | 9.7 | 20.9 | 0.00 | 0.00 | 0.00 | 52 | 1013.1 |
| 20260905093317 | 22 | 287 | 0.0 | 4.8 | 0.00 | 0.00 | 0.00 | 52 | 1012.4 |
| 20260905092829 | 22 | 79 | 1.6 | 4.8 | 0.00 | 0.00 | 0.00 | 52 | 1012.2 |
| 20260905092320 | 22 | 79 | 1.6 | 1.6 | 0.00 | 0.00 | 0.00 | 52 | 1012.1 |
| 20260905091816 | 22 | 79 | 0.0 | 1.6 | 0.00 | 0.00 | 0.00 | 51 | 1012.1 |
| 20260905091327 | 22 | 79 | 0.0 | 3.2 | 0.00 | 0.00 | 0.00 | 51 | 1011.9 |
| 20260905090819 | 22 | 79 | 0.0 | 3.2 | 0.00 | 0.00 | 0.00 | 51 | 1011.7 |
| 20260905090331 | 22 | 79 | 3.2 | 3.2 | 0.00 | 0.00 | 0.00 | 51 | 1011.6 |
| 20260905085821 | 22 | 79 | 1.6 | 3.2 | 0.00 | 0.00 | 0.00 | 51 | 1011.5 |
| 20260905085312 | 22 | 79 | 1.6 | 3.2 | 0.00 | 0.00 | 0.00 | 51 | 1011.5 |
| 20260905084824 | 22 | 79 | 1.6 | 1.6 | 0.00 | 0.00 | 0.00 | 52 | 1011.6 |
| 20260905084335 | 22 | 79 | 0.0 | 0.0 | 0.00 | 0.00 | 0.00 | 52 | 1011.6 |
| 20260905083845 | 22 | 79 | 0.0 | 0.0 | 0.00 | 0.00 | 0.00 | 51 | 1011.6 |
| 20260905083320 | 22 | 79 | 0.0 | 0.0 | 0.00 | 0.00 | 0.00 | 52 | 1011.6 |
| 20260905082813 | 22 | 79 | 0.0 | 0.0 | 0.00 | 0.00 | 0.00 | 52 | 1011.6 |
| 20260905082325 | 22 | 79 | 0.0 | 1.6 | 0.00 | 0.00 | 0.00 | 51 | 1011.5 |
| 20260905081816 | 22 | 79 | 0.0 | 1.6 | 0.00 | 0.00 | 0.00 | 51 | 1011.4 |
| 20260905081327 | 22 | 79 | 0.0 | 1.6 | 0.00 | 0.00 | 0.00 | 51 | 1011.4 |
| 20260905080818 | 22 | 79 | 0.0 | 0.0 | 0.00 | 0.00 | 0.00 | 51 | 1011.4 |
| 20260905080330 | 22 | 79 | 0.0 | 0.0 | 0.00 | 0.00 | 0.00 | 51 | 1011.3 |
| 20260905075819 | 22 | 79 | 0.0 | 0.0 | 0.00 | 0.00 | 0.00 | 51 | 1011.3 |
| 20260905075351 | 22 | 79 | 0.0 | 0.0 | 0.00 | 0.00 | 0.00 | 51 | 1011.2 |
| 20260905074825 | 22 | 79 | 0.0 | 0.0 | 0.00 | 0.00 | 0.00 | 51 | 1011.2 |
| 20260905074316 | 22 | 79 | 0.0 | 1.6 | 0.00 | 0.00 | 0.00 | 52 | 1011.1 |
| 20260905073826 | 22 | 79 | 0.0 | 1.6 | 0.00 | 0.00 | 0.00 | 52 | 1011.1 |
| 20260905073317 | 22 | 79 | 0.0 | 0.0 | 0.00 | 0.00 | 0.00 | 52 | 1011.1 |
| 20260905072828 | 22 | 79 | 0.0 | 0.0 | 0.00 | 0.00 | 0.00 | 51 | 1011.1 |
| 20260905072320 | 22 | 79 | 0.0 | 0.0 | 0.00 | 0.00 | 0.00 | 51 | 1011.2 |
| 20260905071811 | 22 | 79 | 0.0 | 0.0 | 0.00 | 0.00 | 0.00 | 51 | 1011.3 |
| 20260905071323 | 22 | 79 | 0.0 | 0.0 | 0.00 | 0.00 | 0.00 | 51 | 1011.6 |
| 20260905070818 | 22 | 79 | 0.0 | 0.0 | 0.00 | 0.00 | 0.00 | 51 | 1011.5 |
| 20260905070350 | 22 | 79 | 0.0 | 0.0 | 0.00 | 0.00 | 0.00 | 51 | 1011.6 |
| 20260905065317 | 22 | 79 | 0.0 | 0.0 | 0.00 | 0.00 | 0.00 | 51 | 1011.8 |
| 20260905064829 | 22 | 79 | 0.0 | 0.0 | 0.00 | 0.00 | 0.00 | 51 | 1011.8 |
| 20260905064320 | 22 | 79 | 0.0 | 0.0 | 0.00 | 0.00 | 0.00 | 51 | 1011.9 |
| 20260905063852 | 22 | 79 | 0.0 | 0.0 | 0.00 | 0.00 | 0.00 | 51 | 1011.9 |
| 20260905063322 | 22 | 79 | 0.0 | 0.0 | 0.00 | 0.00 | 0.00 | 51 | 1012.0 |
| 20260905062813 | 22 | 79 | 0.0 | 0.0 | 0.00 | 0.00 | 0.00 | 51 | 1012.0 |
| 20260905062325 | 22 | 79 | 0.0 | 1.6 | 0.00 | 0.00 | 0.00 | 51 | 1012.2 |
| 20260905061820 | 22 | 79 | 0.0 | 1.6 | 0.00 | 0.00 | 0.00 | 51 | 1012.2 |
| 20260905061312 | 22 | 79 | 0.0 | 0.0 | 0.00 | 0.00 | 0.00 | 51 | 1012.1 |
| 20260905060824 | 22 | 79 | 0.0 | 0.0 | 0.00 | 0.00 | 0.00 | 51 | 1012.2 |
| 20260905060316 | 22 | 79 | 0.0 | 0.0 | 0.00 | 0.00 | 0.00 | 51 | 1012.2 |
| 20260905055825 | 22 | 79 | 0.0 | 0.0 | 0.00 | 0.00 | 0.00 | 51 | 1012.3 |
| 20260905055336 | 22 | 79 | 0.0 | 0.0 | 0.00 | 0.00 | 0.00 | 51 | 1012.4 |
| 20260905054826 | 22 | 79 | 0.0 | 1.6 | 0.00 | 0.00 | 0.00 | 52 | 1012.5 |
| 20260905054318 | 22 | 79 | 0.0 | 1.6 | 0.00 | 0.00 | 0.00 | 52 | 1012.5 |
| 20260905053813 | 22 | 79 | 1.6 | 1.6 | 0.00 | 0.00 | 0.00 | 52 | 1012.6 |
| 20260905053325 | 22 | 79 | 0.0 | 0.0 | 0.00 | 0.00 | 0.00 | 52 | 1012.6 |
| 20260905052816 | 23 | 79 | 0.0 | 1.6 | 0.00 | 0.00 | 0.00 | 52 | 1012.7 |
| 20260905052348 | 23 | 79 | 0.0 | 1.6 | 0.00 | 0.00 | 0.00 | 52 | 1012.7 |
| 20260905051818 | 23 | 79 | 1.6 | 3.2 | 0.00 | 0.00 | 0.00 | 52 | 1012.7 |
| 20260905051329 | 23 | 79 | 0.0 | 1.6 | 0.00 | 0.00 | 0.00 | 52 | 1012.7 |
| 20260905050820 | 23 | 79 | 0.0 | 1.6 | 0.00 | 0.00 | 0.00 | 52 | 1012.7 |
| 20260905045847 | 23 | 79 | 0.0 | 0.0 | 0.00 | 0.00 | 0.00 | 52 | 1012.8 |
| 20260905045318 | 23 | 79 | 0.0 | 0.0 | 0.00 | 0.00 | 0.00 | 52 | 1012.7 |
| 20260905044813 | 23 | 79 | 0.0 | 0.0 | 0.00 | 0.00 | 0.00 | 52 | 1012.8 |
| 20260905044324 | 23 | 79 | 0.0 | 0.0 | 0.00 | 0.00 | 0.00 | 52 | 1012.8 |
| 20260905043814 | 23 | 79 | 0.0 | 0.0 | 0.00 | 0.00 | 0.00 | 52 | 1012.8 |
| 20260905043326 | 23 | 79 | 0.0 | 0.0 | 0.00 | 0.00 | 0.00 | 52 | 1012.8 |
| 20260905042816 | 23 | 79 | 0.0 | 0.0 | 0.00 | 0.00 | 0.00 | 52 | 1012.8 |
| 20260905042328 | 23 | 79 | 0.0 | 0.0 | 0.00 | 0.00 | 0.00 | 52 | 1012.8 |
| 20260905041819 | 23 | 79 | 0.0 | 0.0 | 0.00 | 0.00 | 0.00 | 52 | 1012.9 |
| 20260905041330 | 23 | 79 | 0.0 | 0.0 | 0.00 | 0.00 | 0.00 | 52 | 1013.0 |
| 20260905040825 | 23 | 79 | 0.0 | 0.0 | 0.00 | 0.00 | 0.00 | 53 | 1013.0 |
| 20260905040316 | 23 | 79 | 0.0 | 0.0 | 0.00 | 0.00 | 0.00 | 53 | 1013.0 |
| 20260905035316 | 23 | 79 | 0.0 | 0.0 | 0.00 | 0.00 | 0.00 | 53 | 1012.9 |
| 20260905034828 | 23 | 79 | 0.0 | 1.6 | 0.00 | 0.00 | 0.00 | 53 | 1012.9 |
| 20260905034319 | 23 | 79 | 1.6 | 1.6 | 0.00 | 0.00 | 0.00 | 53 | 1012.8 |
| 20260905033830 | 23 | 79 | 0.0 | 1.6 | 0.00 | 0.00 | 0.00 | 55 | 1012.7 |
| 20260905033323 | 23 | 79 | 0.0 | 0.0 | 0.00 | 0.00 | 0.00 | 56 | 1012.7 |
| 20260905032818 | 24 | 79 | 0.0 | 0.0 | 0.00 | 0.00 | 0.00 | 56 | 1012.7 |
| 20260905032329 | 24 | 79 | 0.0 | 1.6 | 0.00 | 0.00 | 0.00 | 56 | 1012.7 |
| 20260905031820 | 23 | 79 | 0.0 | 1.6 | 0.00 | 0.00 | 0.00 | 56 | 1012.7 |
| 20260905031312 | 24 | 79 | 0.0 | 1.6 | 0.00 | 0.00 | 0.00 | 56 | 1012.7 |
| 20260905030823 | 24 | 79 | 0.0 | 1.6 | 0.00 | 0.00 | 0.00 | 56 | 1012.8 |
| 20260905030316 | 24 | 79 | 0.0 | 1.6 | 0.00 | 0.00 | 0.00 | 56 | 1012.7 |
| 20260905025824 | 24 | 79 | 0.0 | 1.6 | 0.00 | 0.00 | 0.00 | 55 | 1012.7 |
| 20260905025316 | 24 | 79 | 0.0 | 0.0 | 0.00 | 0.00 | 0.00 | 55 | 1012.7 |
| 20260905024811 | 24 | 79 | 0.0 | 0.0 | 0.00 | 0.00 | 0.00 | 57 | 1012.8 |
| 20260905024322 | 24 | 79 | 0.0 | 1.6 | 0.00 | 0.00 | 0.00 | 59 | 1012.8 |
| 20260905023834 | 24 | 79 | 0.0 | 1.6 | 0.00 | 0.00 | 0.00 | 59 | 1012.8 |
| 20260905023405 | 24 | 79 | 0.0 | 1.6 | 0.00 | 0.00 | 0.00 | 61 | 1012.7 |
| 20260905022831 | 25 | 79 | 0.0 | 3.2 | 0.00 | 0.00 | 0.00 | 62 | 1012.8 |
| 20260905022321 | 25 | 79 | 1.6 | 3.2 | 0.00 | 0.00 | 0.00 | 63 | 1012.7 |
| 20260905021831 | 25 | 79 | 1.6 | 1.6 | 0.00 | 0.00 | 0.00 | 64 | 1012.8 |
| 20260905021322 | 25 | 79 | 0.0 | 1.6 | 0.00 | 0.00 | 0.00 | 65 | 1012.7 |
| 20260905020834 | 25 | 79 | 0.0 | 1.6 | 0.00 | 0.00 | 0.00 | 65 | 1012.7 |
| 20260905020324 | 25 | 79 | 0.0 | 1.6 | 0.00 | 0.00 | 0.00 | 66 | 1012.8 |
| 20260905015813 | 25 | 79 | 0.0 | 1.6 | 0.00 | 0.00 | 0.00 | 66 | 1012.7 |
| 20260905015324 | 25 | 79 | 0.0 | 1.6 | 0.00 | 0.00 | 0.00 | 66 | 1012.7 |
| 20260905014835 | 25 | 79 | 1.6 | 1.6 | 0.00 | 0.00 | 0.00 | 65 | 1012.7 |
| 20260905014329 | 25 | 79 | 0.0 | 1.6 | 0.00 | 0.00 | 0.00 | 66 | 1012.8 |
| 20260905013819 | 26 | 79 | 0.0 | 1.6 | 0.00 | 0.00 | 0.00 | 67 | 1012.8 |
| 20260905013329 | 26 | 79 | 0.0 | 3.2 | 0.00 | 0.00 | 0.00 | 67 | 1012.7 |